Meteo Giornale » Osservazioni meteo Stati Uniti (USA) » Fitchburg

ore: 09:52 - Osservazioni Meteo Fitchburg
Lat. 42° 33' N Lon. 71° 45' W Alt. 106 metri s.l.m.

coperto

19 °C

Coperto

Temp. 24 Ore

18 °C

26 °C

Nord

5.5 Km/h

Dew point 18 °C

Umidità 93 %

Visibilità  10 Km

Il sole sorge alle ore 06:12

Il sole tramonta alle ore 19:21

Data e Ora Cielo e Fenomeni T °C DP °C Um. % Pres. hPa Vis. km Vento km/h
Oggi h: 09:52 coperto Coperto 19 18 93 1018 10 N 5.5
Oggi h: 09:50 coperto Coperto 19 18 93 1018 10 N 5.5
Oggi h: 09:27 coperto_pioggia Pioggia 19 18 93 1018 10 N 0
Oggi h: 09:02 coperto_pioggia Pioggia 19 18 93 1018 13 N 0
Oggi h: 08:52 coperto Coperto 19 18 93 1018 10 N 5.5
Oggi h: 08:50 coperto Coperto 19 18 93 1018 10 N 5.5
Oggi h: 07:52 coperto_pioggia Pioggia Foschia 19 18 93 1018 5 N 0
Oggi h: 07:25 coperto Coperto 19 18 93 1018 14 N 0
Oggi h: 07:08 foschia Foschia 19 18 93 1018 6 N 0
Oggi h: 07:00 foschia Foschia 19 18 93 1018 6 N 0
Oggi h: 06:52 foschia Foschia 19 18 93 1018 8 N 0
Oggi h: 05:52 coperto_pioggia Pioggia Foschia 18 18 100 1017 10 N 5.5
Oggi h: 04:52 coperto Coperto 18 18 100 1017 14 N 0
Oggi h: 03:52 coperto Coperto 19 17 88 1017 10 N 0
Oggi h: 02:52 coperto_pioggia Pioggia 20 16 77 1018 10 N 0
Oggi h: 01:52 coperto Coperto 21 16 73 1018 10 N 0
Oggi h: 00:52 coperto Coperto 21 16 73 1018 10 S 9.3
Ieri h: 23:52 coperto Coperto 21 16 73 1018 10 S 9.3
Ieri h: 22:52 coperto Coperto 21 16 73 1018 10 S 9.3
Ieri h: 21:52 molto_nuvoloso Molto Nuvoloso 22 16 68 1018 10 S/SE 9.3
Ieri h: 20:52 molto_nuvoloso Molto Nuvoloso 21 16 73 1018 10 N 0
Ieri h: 19:52 coperto Coperto 22 16 68 1018 10 N 0
Ieri h: 18:52 poco_nuvoloso Poco Nuvoloso 23 16 64 1018 10 O/SO 7.4
Ieri h: 17:52 molto_nuvoloso Molto Nuvoloso 24 14 53 1018 10 S/SO 9.3
Ieri h: 16:52 sereno Sereno 24 14 53 1019 10 SO 7.4
Ieri h: 15:52 poco_nuvoloso Poco Nuvoloso 26 14 47 1019 10 S 9.3
Ieri h: 14:52 sereno Sereno 25 13 47 1019 10 S 11.1
Ieri h: 13:52 sereno Sereno 24 12 47 1020 10 N 9.3
Ieri h: 12:52 sereno Sereno 24 11 43 1020 10 N 0
Ieri h: 11:52 sereno Sereno 23 11 46 1021 10 O/SO 13
Ieri h: 10:52 sereno Sereno 22 11 49 1021 10 N 0